Waarnemingen

Advertentie
Mijn weer
Ronchi Dei Legionari, Italië (16108): temperatuur & dauwpunt: 22.05.2018 12:00:00 - 28.05.2018 12:00:00 (CEST)Ronchi Dei Legionari, Italië (16108): windsnelheid: 22.05.2018 12:00:00 - 28.05.2018 12:00:00 (CEST)Ronchi Dei Legionari, Italië (16108): windrichting: 22.05.2018 12:00:00 - 28.05.2018 12:00:00 (CEST)Ronchi Dei Legionari, Italië (16108): luchtdruk: 22.05.2018 12:00:00 - 28.05.2018 12:00:00 (CEST)Ronchi Dei Legionari, Italië (16108): zicht: 22.05.2018 12:00:00 - 28.05.2018 12:00:00 (CEST)Ronchi Dei Legionari, Italië (16108): neerslag: 22.05.2018 12:00:00 - 28.05.2018 12:00:00 (CEST)
Datum & Tijd tt [°C] td [°C] ff [km/u] ff [kn] dd ppp [hPa] vv [km] rr [mm]
28.05.2018 12:00:00 - - - - - - - -
28.05.2018 11:00:00 28,0 19,2 4 2 - 1018,3 10 0,0
28.05.2018 10:00:00 26,0 17,0 2 1 - - 10 -
28.05.2018 09:00:00 24,0 17,0 2 1 - - 10 -
28.05.2018 08:00:00 21,8 16,0 5 3 N 1018,2 10 -
28.05.2018 07:00:00 19,0 16,0 5 3 N - 10 -
28.05.2018 06:00:00 18,0 15,0 8 4 NNO - 10 -
28.05.2018 05:00:00 18,4 14,4 8 4 NO 1017,3 10 0,0
28.05.2018 04:00:00 18,0 15,0 5 3 NO - 10 -
28.05.2018 03:00:00 18,0 16,0 5 3 NNO - 10 -
28.05.2018 02:00:00 19,1 16,2 4 2 - 1017,9 10 -
28.05.2018 01:00:00 19,0 16,0 2 1 - - 10 -
28.05.2018 00:00:00 20,0 18,0 8 4 N - 10 -
27.05.2018 23:00:00 20,6 17,2 8 4 OZO 1017,9 10 0,0
27.05.2018 22:00:00 22,0 19,0 4 2 - - 10 -
27.05.2018 21:00:00 24,0 17,0 8 4 NO - 10 -
27.05.2018 20:00:00 24,8 19,1 9 5 O 1017,6 10 -
27.05.2018 19:00:00 26,0 18,0 9 5 ZZO - 10 -
27.05.2018 18:00:00 27,0 17,0 13 7 ZZW - 10 -
27.05.2018 17:00:00 28,4 16,5 13 7 WZW 1016,7 10 0,0
27.05.2018 16:00:00 29,0 16,0 11 6 ZZW - 10 -
27.05.2018 15:00:00 29,0 18,0 8 4 ZZW - 10 -
27.05.2018 14:00:00 29,6 18,1 5 3 - 1017,6 10 -
27.05.2018 13:00:00 29,0 17,0 5 3 - - 10 -
27.05.2018 12:00:00 28,0 18,0 4 2 - - 10 -
27.05.2018 11:00:00 27,3 17,8 4 2 - 1018,9 10 0,0
27.05.2018 10:00:00 25,0 18,0 8 4 N - 10 -
27.05.2018 09:00:00 23,0 18,0 5 3 NW - 10 -
27.05.2018 08:00:00 22,5 17,0 4 2 - 1018,9 10 -
27.05.2018 07:00:00 17,0 16,0 4 2 - - 10 -
27.05.2018 06:00:00 17,0 16,0 2 1 - - 10 -
27.05.2018 05:00:00 16,9 16,2 2 1 - 1018,4 10 0,0
27.05.2018 04:00:00 18,0 16,0 5 3 ONO - 10 -
27.05.2018 03:00:00 18,0 16,0 8 4 N - 10 -
27.05.2018 02:00:00 17,8 16,4 2 1 - 1019,3 10 -
27.05.2018 01:00:00 19,0 17,0 5 3 O - 10 -
27.05.2018 00:00:00 19,0 17,0 9 5 O - 10 -
26.05.2018 23:00:00 20,4 18,1 4 2 ZO 1020,0 10 0,0
26.05.2018 22:00:00 21,0 19,0 8 4 ZO - 10 -
26.05.2018 21:00:00 22,0 19,0 9 5 ZZO - 10 -
26.05.2018 20:00:00 23,6 18,8 11 6 ZZO 1018,0 10 -
26.05.2018 19:00:00 26,0 18,0 8 4 ZZO - 10 -
26.05.2018 18:00:00 27,0 18,0 8 4 ZZW - 10 -
26.05.2018 17:00:00 27,8 18,1 11 6 ZW 1018,4 10 0,0
26.05.2018 16:00:00 28,0 18,0 15 8 ZZW - 10 -
26.05.2018 15:00:00 29,0 15,0 4 2 - - 10 -
26.05.2018 14:00:00 27,9 15,6 5 3 - 1019,1 10 -
26.05.2018 13:00:00 28,0 16,0 5 3 - - 10 -
26.05.2018 12:00:00 27,0 15,0 8 4 - - 10 -
26.05.2018 11:00:00 27,0 16,0 5 3 ZZO - 10 -
26.05.2018 10:00:00 25,0 15,0 9 5 O - 10 -
26.05.2018 09:00:00 24,0 16,0 9 5 O - 10 -
26.05.2018 08:00:00 22,2 16,4 5 3 N 1019,0 10 -
26.05.2018 07:00:00 19,0 16,0 4 2 - - 10 -
26.05.2018 06:00:00 18,0 16,0 5 3 N - 10 -
26.05.2018 05:00:00 18,5 15,9 5 3 N 1018,0 10 0,0
26.05.2018 04:00:00 19,0 16,0 8 4 NO - 10 -
26.05.2018 03:00:00 18,0 16,0 8 4 NW - 10 -
26.05.2018 02:00:00 19,4 15,4 8 4 N 1018,2 10 -
26.05.2018 01:00:00 21,0 15,0 4 2 NO - 10 -
26.05.2018 00:00:00 21,0 15,0 13 7 N - 10 -
25.05.2018 23:00:00 21,8 13,6 9 5 OZO 1017,6 10 0,0
25.05.2018 22:00:00 23,0 15,0 18 10 O - 10 -
25.05.2018 21:00:00 21,0 16,0 8 4 OZO - 10 -
25.05.2018 20:00:00 23,3 15,6 9 5 OZO 1015,2 10 -
25.05.2018 19:00:00 25,0 19,0 9 5 O - 10 -
25.05.2018 18:00:00 22,0 20,0 9 5 ZO - 10 -
25.05.2018 17:00:00 21,0 14,9 31 17 ZO 1014,9 10 0,0
25.05.2018 16:00:00 29,0 17,0 9 5 W - 10 -
25.05.2018 15:00:00 29,0 18,0 5 3 - - 10 -
25.05.2018 14:00:00 28,4 17,3 13 7 W 1014,2 10 -
25.05.2018 13:00:00 28,0 16,0 11 6 ZW - 10 -
25.05.2018 12:00:00 27,0 16,0 5 3 - - 10 -
25.05.2018 11:00:00 26,3 16,9 5 3 WNW 1015,0 10 0,0
25.05.2018 10:00:00 25,0 17,0 4 2 - - 10 -
25.05.2018 09:00:00 22,0 17,0 4 2 - - 10 -
25.05.2018 08:00:00 20,5 16,2 4 2 N 1015,1 10 -
25.05.2018 07:00:00 16,0 16,0 2 1 - - 10 -
25.05.2018 06:00:00 15,0 15,0 2 1 N - 10 -
25.05.2018 05:00:00 14,9 14,1 2 1 - 1014,9 10 0,0
25.05.2018 04:00:00 16,0 15,0 4 2 - - 10 -
25.05.2018 03:00:00 16,0 15,0 4 2 - - 10 -
25.05.2018 02:00:00 16,9 15,8 8 4 N 1015,6 10 -
25.05.2018 01:00:00 18,0 17,0 8 4 NNW - 10 -
25.05.2018 00:00:00 - - - - - - - -
24.05.2018 23:00:00 18,5 17,2 5 3 N 1015,5 10 0,0
24.05.2018 22:00:00 19,0 17,0 8 4 NNW - 10 -
24.05.2018 21:00:00 21,0 18,0 4 2 - - 10 -
24.05.2018 20:00:00 21,8 19,1 8 4 NNW 1014,9 10 -
24.05.2018 19:00:00 22,0 18,0 8 4 N - 10 -
24.05.2018 18:00:00 22,0 18,0 11 6 N - 10 -
24.05.2018 17:00:00 21,9 17,2 15 8 N 1015,1 10 0,0
24.05.2018 16:00:00 27,0 18,0 15 8 ZZO - 10 -
24.05.2018 15:00:00 27,0 19,0 24 13 ZO - 10 -
24.05.2018 14:00:00 28,4 16,5 9 5 O 1015,1 10 -
24.05.2018 13:00:00 28,0 16,0 8 4 - - 10 -
24.05.2018 12:00:00 27,0 16,0 11 6 O - 10 -
24.05.2018 11:00:00 25,9 18,1 5 3 NNW 1016,2 10 0,0
24.05.2018 10:00:00 23,0 18,0 8 4 N - 10 -
24.05.2018 09:00:00 23,0 18,0 8 4 N - 10 -
24.05.2018 08:00:00 21,1 17,7 4 2 - 1016,0 10 -
24.05.2018 07:00:00 17,0 16,0 4 2 - - 10 -
24.05.2018 06:00:00 17,0 16,0 5 3 NNW - 10 -
24.05.2018 05:00:00 17,0 15,8 5 3 O 1015,8 10 0,0
24.05.2018 04:00:00 16,0 15,0 4 2 - - 10 -
24.05.2018 03:00:00 16,0 16,0 4 2 - - 10 -
24.05.2018 02:00:00 18,2 15,4 8 4 O 1015,8 10 -
24.05.2018 01:00:00 18,0 17,0 5 3 N - 10 -
24.05.2018 00:00:00 18,0 17,0 4 2 N - 10 -
23.05.2018 23:00:00 19,3 18,0 4 2 N 1016,0 10 0,0
23.05.2018 22:00:00 20,0 19,0 5 3 N - 10 -
23.05.2018 21:00:00 21,0 19,0 4 2 - - 10 -
23.05.2018 20:00:00 21,2 18,9 4 2 - 1015,1 10 -
23.05.2018 19:00:00 22,0 19,0 2 1 - - 10 -
23.05.2018 18:00:00 22,0 19,0 9 5 OZO - 10 -
23.05.2018 17:00:00 23,4 17,8 2 1 - 1014,7 10 0,0
23.05.2018 16:00:00 24,0 16,0 5 3 W - 10 -
23.05.2018 15:00:00 23,0 17,0 9 5 W - 10 -
23.05.2018 14:00:00 22,9 16,4 9 5 W 1016,1 10 -
23.05.2018 13:00:00 23,0 16,0 4 2 - - 10 -
23.05.2018 12:00:00 22,0 15,0 8 4 ZZO - 10 -
23.05.2018 11:00:00 22,3 15,7 5 3 ZO 1016,4 10 0,0
23.05.2018 10:00:00 20,0 16,0 5 3 NO - 10 -
23.05.2018 09:00:00 20,0 16,0 9 5 N - 10 -
23.05.2018 08:00:00 17,7 16,1 8 4 N 1015,5 10 -
23.05.2018 07:00:00 16,0 16,0 2 1 - - 10 -
23.05.2018 06:00:00 16,0 16,0 4 2 - - 10 -
23.05.2018 05:00:00 16,0 15,5 8 4 NNO 1014,7 10 0,0
23.05.2018 04:00:00 17,0 16,0 5 3 N - 9 -
23.05.2018 03:00:00 17,0 16,0 5 3 N - 10 -
23.05.2018 02:00:00 17,2 16,5 4 2 NNO 1015,7 10 -
23.05.2018 01:00:00 18,0 17,0 2 1 N - 10 -
23.05.2018 00:00:00 18,0 17,0 8 4 N - 10 -
22.05.2018 23:00:00 17,9 16,9 8 4 NNO 1016,4 10 0,0
22.05.2018 22:00:00 18,0 17,0 5 3 ZW - 10 -
22.05.2018 21:00:00 19,0 17,0 5 3 ZZW - 10 -
22.05.2018 20:00:00 19,9 16,7 5 3 Z 1015,2 10 -
22.05.2018 19:00:00 21,0 16,0 9 5 ZZW - 10 -
22.05.2018 18:00:00 22,0 17,0 8 4 Z - 10 -
22.05.2018 17:00:00 21,2 17,2 11 6 Z 1014,6 10 0,0
22.05.2018 16:00:00 21,0 17,0 4 2 - - 10 -
22.05.2018 15:00:00 21,0 16,0 8 4 ZZO - 10 -
22.05.2018 14:00:00 20,3 16,7 9 5 ONO 1014,6 10 -
22.05.2018 13:00:00 19,0 17,0 11 6 NO - 10 -
22.05.2018 12:00:00 18,0 16,0 9 5 NO - 10 -

tt = temperatuur
td = dauwpunt
ff = windsnelheid
dd = windrichting
ppp = luchtdruk
vv = zicht
rr = neerslag

Weerstations in de omgeving